Flag Weather past 2 weeks in Montpelier, Vermont, U.S.A.

Now
39 °F

Overcast.


Feels Like: 37 °F
Forecast: 33 / 43 °F
Wind: 3 mph from North

Location: Knapp State Airport

Current Time: Nov 22, 2014 at 8:24:05 PM

Latest Report: Nov 22, 2014 at 7:51 PM


Visibility: 10 mi

Pressure: 30.01 "Hg

Humidity: 65%

Dew point: 28 °F

Location of MontpelierLocation

Historic Weather in Montpelier — Graph

°F

Montpelier temperature yesterday

Maximum temperature yesterday: 22 °F (at 12:51 AM)
Minimum temperature yesterday: 19 °F (at 5:51 PM)
Average temperature yesterday: 20 °F

Past Weeks' High & Low Weather Summary

 TemperatureHumidityPressure
High57 °F (Nov 11, 12:51 PM)100% (Nov 13, 11:00 PM)30.40 "Hg (Nov 13, 11:00 PM)
Low15 °F (Nov 22, 1:51 AM)32% (Nov 22, 1:51 PM)29.46 "Hg (Nov 18, 2:01 AM)
Average31 °F69%30.00 "Hg
* Reported Nov 7 7:51 PM — Nov 22 6:51 PM, Montpelier, Weather by CustomWeather, © 2014

Note: Actual official high and low records may vary slightly from our data, if they occured in-between our weather recording intervals... More about our weather records

Advertising

Montpelier weather history for previous 24 hours

 ConditionsComfort  
Time TempWeatherWind HumidityBarometerVisibility
6:51 PM
Nov 22
38 °FOvercast.12 mph65%30.01 "Hg10 mi
5:51 PM37 °FMostly cloudy.15 mph54%30.02 "Hg10 mi
4:51 PM33 °FOvercast.16 mph40%30.01 "Hg10 mi
3:51 PM33 °FMostly cloudy.15 mph38%30.05 "Hg10 mi
2:51 PM35 °FPartly sunny.15 mph32%30.06 "Hg10 mi
1:51 PM34 °FSunny.12 mph32%30.09 "Hg10 mi
12:51 PM33 °FSunny.7 mph36%30.12 "Hg10 mi
11:51 AM29 °FPassing clouds.9 mph51%30.17 "Hg10 mi
10:51 AM27 °FSunny.9 mph55%30.21 "Hg10 mi
9:51 AM24 °FSunny.12 mph65%30.25 "Hg10 mi
8:51 AM22 °FSunny.10 mph68%30.28 "Hg10 mi
7:51 AM21 °FSunny.10 mph71%30.32 "Hg10 mi
6:51 AM19 °FPassing clouds.8 mph74%30.32 "Hg10 mi
5:51 AM18 °FOvercast.9 mph74%30.34 "Hg10 mi
4:51 AM17 °FClear.10 mph70%30.36 "Hg10 mi
3:51 AM19 °FPassing clouds.8 mph62%30.37 "Hg10 mi
2:51 AM20 °FOvercast.5 mph60%30.38 "Hg10 mi
1:51 AM15 °FClear.3 mph67%30.39 "Hg10 mi
12:51 AM20 °FClear.3 mph52%30.38 "Hg10 mi
11:51 PM
Nov 21
21 °FOvercast.7 mph52%30.38 "Hg10 mi
10:51 PM20 °FOvercast.7 mph55%30.39 "Hg10 mi
9:51 PM20 °FOvercast.8 mph52%30.40 "Hg10 mi
8:51 PM19 °FOvercast.7 mph49%30.40 "Hg10 mi
Weather by CustomWeather, © 2014

See weather overviewHow to use our weather pages